KC3ROS Weather Reports


Display with metric or nautical units.
time (UTC)temp
F
wind
direction
speed
MPH
gust
MPH
rain 1hr
in
rain 24hr
in
rain mn
in
humidity
%
barometer
mb
20260509224205 68 231 1.0 8.0 0.00 0.09 0.09 60 1005.7
20260509223702 68 124 3.0 10.0 0.00 0.09 0.09 58 1005.4
20260509223154 68 200 10.0 18.0 0.00 0.09 0.09 57 1005.3
20260509222651 68 255 6.0 9.0 0.00 0.09 0.09 57 1005.2
20260509222146 68 213 4.0 9.0 0.00 0.09 0.09 58 1005.2
20260509221642 68 118 3.0 9.0 0.00 0.09 0.09 57 1005.3
20260509221138 68 180 2.0 10.0 0.00 0.09 0.09 56 1005.4
20260509220634 68 263 3.0 9.0 0.00 0.09 0.09 58 1005.3
20260509220130 68 200 3.0 13.0 0.00 0.09 0.09 57 1005.4
20260509215627 68 108 3.0 9.0 0.00 0.09 0.09 59 1005.7
20260509215123 68 217 5.0 7.0 0.00 0.09 0.09 60 1005.8
20260509214621 69 213 6.0 9.0 0.00 0.09 0.09 56 1005.8
20260509214117 68 129 3.0 11.0 0.00 0.09 0.09 60 1005.6
20260509213613 68 113 2.0 10.0 0.00 0.09 0.09 58 1005.6
20260509213110 68 155 0.0 11.0 0.00 0.09 0.09 58 1005.7
20260509212607 69 243 3.0 8.0 0.00 0.09 0.09 56 1005.7
20260509212104 68 227 3.0 6.0 0.00 0.09 0.09 59 1005.9
20260509211559 67 225 10.0 11.0 0.00 0.09 0.09 61 1005.7
20260509211056 68 266 5.0 12.0 0.00 0.09 0.09 58 1005.7
20260509210553 67 239 2.0 8.0 0.00 0.09 0.09 62 1005.9
20260509210050 67 172 4.0 11.0 0.00 0.09 0.09 62 1006.2
20260509205544 68 347 2.0 7.0 0.00 0.09 0.09 62 1006.0
20260509205040 67 302 0.0 4.0 0.00 0.09 0.09 67 1006.1
20260509204536 65 198 1.0 10.0 0.00 0.09 0.09 65 1006.4
20260509204032 64 222 7.0 9.0 0.00 0.09 0.09 65 1006.2
20260509203528 67 211 6.0 8.0 0.00 0.09 0.09 64 1006.2
20260509203027 67 323 4.0 11.0 0.00 0.09 0.09 61 1006.4
20260509202526 66 280 6.0 8.0 0.00 0.09 0.09 63 1006.2
20260509202022 65 229 8.0 10.0 0.00 0.09 0.09 67 1006.5
20260509201517 65 211 3.0 7.0 0.00 0.09 0.09 66 1006.5
20260509201015 66 166 2.0 9.0 0.00 0.09 0.09 65 1006.4
20260509200510 63 280 3.0 6.0 0.00 0.09 0.09 68 1006.5
20260509200007 65 197 3.0 8.0 0.00 0.09 0.09 68 1006.6
20260509195502 63 113 1.0 6.0 0.00 0.09 0.09 69 1006.6
20260509195001 66 230 4.0 7.0 0.00 0.09 0.09 69 1006.7
20260509194457 64 259 1.0 10.0 0.00 0.09 0.09 70 1006.8
20260509193954 62 150 3.0 9.0 0.00 0.09 0.09 70 1006.7
20260509193449 64 234 3.0 8.0 0.00 0.09 0.09 69 1007.0
20260509192945 65 205 2.0 6.0 0.00 0.09 0.09 69 1006.8
20260509192442 65 221 5.0 10.0 0.00 0.09 0.09 68 1006.9
20260509191937 65 180 6.0 13.0 0.00 0.09 0.09 68 1007.0
20260509191432 64 76 0.0 9.0 0.00 0.09 0.09 73 1007.0
20260509190929 62 89 2.0 13.0 0.00 0.09 0.09 73 1007.1
20260509190426 62 185 2.0 7.0 0.00 0.09 0.09 74 1007.0
20260509185924 62 193 1.0 5.0 0.00 0.09 0.09 75 1007.1
20260509185421 64 217 2.0 7.0 0.00 0.09 0.09 71 1007.3
20260509184917 63 224 3.0 17.0 0.00 0.09 0.09 75 1007.4
20260509184415 62 178 3.0 6.0 0.00 0.09 0.09 75 1007.2
20260509183911 63 194 1.0 6.0 0.00 0.09 0.09 74 1007.4
20260509183406 62 33 3.0 11.0 0.00 0.09 0.09 76 1007.5
20260509182902 62 213 3.0 6.0 0.00 0.09 0.09 76 1007.5
20260509182359 62 142 3.0 11.0 0.00 0.09 0.09 77 1007.4
20260509181857 59 233 3.0 7.0 0.00 0.09 0.09 80 1007.5
20260509181354 60 121 5.0 8.0 0.00 0.09 0.09 80 1007.7
20260509180851 61 187 5.0 10.0 0.00 0.09 0.09 76 1007.4
20260509180346 61 220 4.0 7.0 0.00 0.09 0.09 78 1007.5
20260509175844 61 289 4.0 9.0 0.00 0.09 0.09 77 1007.3
20260509175340 61 149 0.0 5.0 0.00 0.09 0.09 79 1007.5
20260509174836 59 123 2.0 4.0 0.00 0.09 0.09 80 1007.4
20260509174332 59 211 2.0 11.0 0.00 0.09 0.09 80 1007.7
20260509173828 59 253 9.0 9.0 0.00 0.09 0.09 80 1007.4
20260509173323 59 97 3.0 3.0 0.00 0.09 0.09 84 1007.4
20260509172820 58 273 4.0 9.0 0.00 0.09 0.09 82 1007.6
20260509172317 58 147 3.0 11.0 0.00 0.09 0.09 84 1007.6
20260509171813 58 218 2.0 8.0 0.00 0.09 0.09 86 1007.6
20260509171308 58 197 2.0 7.0 0.00 0.09 0.09 84 1007.6
20260509170805 59 154 0.0 7.0 0.00 0.09 0.09 84 1007.6
20260509170301 59 303 4.0 6.0 0.00 0.09 0.09 82 1007.4
20260509165800 59 186 3.0 7.0 0.00 0.09 0.09 84 1007.5
20260509165255 60 275 3.0 6.0 0.00 0.09 0.09 83 1007.2
20260509164752 59 96 4.0 7.0 0.00 0.09 0.09 85 1007.3
20260509164248 57 101 4.0 5.0 0.00 0.09 0.09 88 1007.4
20260509163745 57 62 0.0 5.0 0.00 0.09 0.09 87 1007.3
20260509163241 57 146 0.0 3.0 0.00 0.09 0.09 88 1007.4
20260509162739 58 127 2.0 7.0 0.00 0.09 0.09 88 1007.4
20260509162228 58 216 3.0 7.0 0.00 0.09 0.09 88 1007.4
20260509161724 56 188 2.0 7.0 0.00 0.09 0.09 91 1007.3
20260509161220 56 185 3.0 7.0 0.00 0.09 0.09 94 1007.4
20260509160715 56 102 1.0 5.0 0.00 0.09 0.09 98 1007.3
20260509160212 55 222 3.0 5.0 0.00 0.09 0.09 99 1007.2
20260509155707 54 215 0.0 5.0 0.00 0.09 0.09 99 1007.2
20260509155204 53 212 0.0 2.0 0.00 0.09 0.09 99 1007.5
20260509154700 54 224 0.0 3.0 0.00 0.09 0.09 99 1007.3
20260509154157 53 332 3.0 4.0 0.00 0.09 0.09 99 1007.4
20260509153654 53 202 3.0 8.0 0.00 0.09 0.09 99 1007.3
20260509153151 53 209 2.0 3.0 0.00 0.09 0.09 99 1007.4
20260509152646 52 216 1.0 3.0 0.00 0.09 0.09 99 1007.2
20260509152144 52 233 4.0 5.0 0.00 0.09 0.09 99 1007.3
20260509151640 52 50 0.0 3.0 0.00 0.09 0.09 99 1007.3
20260509151137 52 22 0.0 3.0 0.00 0.09 0.09 99 1007.5
20260509150636 52 203 0.0 5.0 0.00 0.09 0.09 99 1007.5
20260509150134 51 211 2.0 5.0 0.00 0.09 0.09 99 1007.6
20260509145630 51 196 4.0 10.0 0.02 0.09 0.09 99 1007.5
20260509145125 51 214 3.0 4.0 0.02 0.09 0.09 99 1007.5
20260509144622 51 298 3.0 5.0 0.02 0.09 0.09 99 1007.4
20260509144119 51 218 2.0 3.0 0.02 0.08 0.08 99 1007.4
20260509143616 51 193 1.0 3.0 0.02 0.08 0.08 99 1007.4
20260509143114 51 269 2.0 4.0 0.02 0.08 0.08 99 1007.5
20260509142608 51 210 2.0 5.0 0.05 0.08 0.08 99 1007.3
20260509142105 51 192 1.0 3.0 0.02 0.07 0.07 99 1007.3
20260509141601 51 59 0.0 3.0 0.00 0.07 0.07 99 1007.2
20260509141058 51 149 0.0 2.0 0.00 0.07 0.07 99 1007.4
20260509140555 51 85 0.0 4.0 0.00 0.07 0.07 99 1007.4
20260509140053 51 194 2.0 3.0 0.00 0.07 0.07 99 1007.4
20260509135550 51 206 0.0 4.0 0.00 0.07 0.07 99 1007.4
20260509135047 51 202 0.0 3.0 0.00 0.07 0.07 99 1007.5
20260509134544 51 150 2.0 3.0 0.00 0.07 0.07 99 1007.6
20260509134041 51 225 4.0 6.0 0.00 0.07 0.07 99 1007.5
20260509133538 51 231 1.0 3.0 0.00 0.07 0.07 99 1007.8
20260509133036 50 132 2.0 4.0 0.00 0.07 0.07 99 1007.6
20260509132534 50 172 1.0 5.0 0.02 0.07 0.07 99 1007.6
20260509132032 50 213 2.0 3.0 0.02 0.07 0.07 99 1007.6
20260509131528 50 193 1.0 6.0 0.00 0.07 0.07 99 1007.6
20260509131025 50 164 0.0 5.0 0.00 0.07 0.07 99 1007.6
20260509130520 50 183 2.0 3.0 0.00 0.07 0.07 99 1007.8
20260509130018 50 169 0.0 4.0 0.00 0.07 0.07 99 1007.8
20260509125514 50 213 1.0 3.0 0.02 0.07 0.07 99 1007.6
20260509125010 50 200 1.0 6.0 0.05 0.07 0.07 99 1007.7
20260509124507 50 199 3.0 6.0 0.02 0.06 0.06 99 1007.6
20260509124004 50 216 2.0 6.0 0.02 0.06 0.06 99 1007.8
20260509123503 50 184 2.0 5.0 0.02 0.06 0.06 99 1007.6
20260509122958 50 225 3.0 4.0 0.02 0.06 0.06 99 1007.9
20260509122455 50 99 1.0 6.0 0.02 0.05 0.05 99 1007.9
20260509121952 50 206 2.0 5.0 0.02 0.05 0.05 99 1007.9
20260509121448 50 175 0.0 4.0 0.00 0.05 0.05 99 1007.8
20260509120946 50 211 3.0 5.0 0.00 0.05 0.05 99 1007.8
20260509120444 50 183 0.0 4.0 0.00 0.05 0.05 99 1007.8
20260509115942 50 219 2.0 2.0 0.00 0.05 0.05 99 1007.7
20260509115439 50 284 2.0 6.0 0.00 0.05 0.05 99 1007.7
20260509114936 50 307 2.0 5.0 0.02 0.05 0.05 99 1007.8
20260509114435 50 140 1.0 7.0 0.05 0.05 0.05 99 1007.6
20260509113934 50 131 1.0 3.0 0.09 0.04 0.04 99 1007.7
20260509113431 50 135 0.0 5.0 0.07 0.04 0.04 99 1007.6
20260509112927 50 195 2.0 5.0 0.05 0.03 0.03 99 1007.9
20260509112425 49 142 0.0 6.0 0.05 0.02 0.02 99 1007.8
20260509111921 49 208 0.0 4.0 0.02 0.02 0.02 99 1007.7
20260509111419 49 192 1.0 3.0 0.00 0.02 0.02 99 1007.5
20260509110916 49 188 2.0 4.0 0.02 0.02 0.02 99 1007.5
20260509110412 49 178 0.0 4.0 0.00 0.01 0.01 99 1007.6
20260509105910 49 210 2.0 8.0 0.00 0.01 0.01 99 1007.5
20260509105409 49 211 0.0 6.0 0.00 0.01 0.01 99 1007.5
20260509104905 49 206 3.0 5.0 0.00 0.01 0.01 99 1007.3
20260509104402 49 125 0.0 4.0 0.00 0.01 0.01 99 1007.4
20260509103859 49 134 1.0 3.0 0.00 0.01 0.01 99 1007.4
20260509103356 49 119 0.0 3.0 0.00 0.01 0.01 99 1007.4
20260509102855 49 69 0.0 2.0 0.00 0.01 0.01 99 1007.4
20260509102352 48 144 0.0 4.0 0.00 0.01 0.01 99 1007.3
20260509101848 48 212 2.0 3.0 0.00 0.01 0.01 99 1007.3
20260509101344 49 180 0.0 4.0 0.00 0.01 0.01 99 1007.4
20260509100842 48 191 1.0 3.0 0.00 0.01 0.01 99 1007.2
20260509100339 48 214 0.0 3.0 0.00 0.01 0.01 99 1007.4
20260509095836 48 131 0.0 1.0 0.00 0.01 0.01 99 1007.3
20260509095333 48 104 0.0 3.0 0.00 0.01 0.01 99 1007.4
20260509094830 48 18 0.0 2.0 0.00 0.01 0.01 99 1007.4
20260509094326 48 196 0.0 3.0 0.00 0.01 0.01 99 1007.5
20260509093824 48 240 0.0 2.0 0.00 0.01 0.01 99 1007.6
20260509093321 48 231 1.0 2.0 0.00 0.01 0.01 99 1007.6
20260509092820 48 24 0.0 3.0 0.00 0.01 0.01 99 1007.8
20260509092317 48 15 0.0 1.0 0.00 0.01 0.01 99 1007.9
20260509091815 48 235 0.0 2.0 0.00 0.01 0.01 99 1007.7
20260509091312 48 93 1.0 2.0 0.00 0.01 0.01 99 1007.8
20260509090809 48 96 1.0 3.0 0.00 0.01 0.01 99 1007.7
20260509090306 48 92 1.0 2.0 0.00 0.01 0.01 99 1007.8
20260509085803 48 45 0.0 2.0 0.00 0.01 0.01 99 1007.8
20260509085301 48 65 1.0 2.0 0.00 0.01 0.01 99 1008.0
20260509084757 48 108 0.0 2.0 0.00 0.01 0.01 99 1008.0
20260509084254 48 44 0.0 1.0 0.00 0.01 0.01 99 1008.1
20260509083752 48 37 0.0 1.0 0.00 0.01 0.01 99 1008.1
20260509083248 48 135 0.0 1.0 0.00 0.01 0.01 99 1008.0
20260509082745 48 131 0.0 2.0 0.02 0.01 0.01 99 1008.1
20260509082241 48 329 0.0 1.0 0.02 0.01 0.01 99 1008.5
20260509081739 48 6 0.0 0.0 0.00 0.01 0.01 99 1008.0
20260509081236 48 105 2.0 2.0 0.00 0.01 0.01 99 1008.0
20260509080734 48 110 2.0 2.0 0.00 0.01 0.01 99 1007.9
20260509080231 48 72 0.0 2.0 0.00 0.01 0.01 99 1008.1
20260509075729 48 75 0.0 1.0 0.00 0.01 0.01 99 1008.4
20260509075227 48 235 1.0 2.0 0.00 0.01 0.01 99 1008.4
20260509074723 48 269 0.0 2.0 0.00 0.01 0.01 99 1008.2
20260509074221 48 129 0.0 1.0 0.00 0.01 0.01 99 1008.4
20260509073717 48 104 0.0 0.0 0.00 0.01 0.01 99 1008.2
20260509073214 48 104 0.0 2.0 0.02 0.01 0.01 99 1008.1
20260509072710 48 66 0.0 1.0 0.02 0.01 0.01 99 1008.1
20260509072207 48 15 0.0 1.0 0.00 0.00 0.00 99 1008.2
20260509071703 48 224 0.0 2.0 0.00 0.00 0.00 99 1008.0
20260509071201 48 269 0.0 1.0 0.00 0.00 0.00 99 1008.2
20260509070658 48 54 2.0 3.0 0.00 0.00 0.00 99 1008.0
20260509070154 48 109 2.0 5.0 0.00 0.00 0.00 99 1007.9
20260509065650 48 129 1.0 3.0 0.00 0.00 0.00 99 1008.1
20260509065147 48 108 3.0 4.0 0.00 0.00 0.00 99 1008.5
20260509064644 48 116 2.0 3.0 0.00 0.00 0.00 99 1008.0
20260509064142 48 107 2.0 3.0 0.00 0.00 0.00 99 1008.2
20260509063638 48 103 2.0 4.0 0.00 0.00 0.00 99 1008.2
20260509063135 47 95 1.0 2.0 0.00 0.00 0.00 99 1008.2
20260509062632 48 83 1.0 2.0 0.00 0.00 0.00 99 1008.5
20260509062129 48 32 0.0 2.0 0.00 0.00 0.00 99 1008.5
20260509061626 48 129 0.0 3.0 0.00 0.00 0.00 99 1008.5
20260509061123 48 68 2.0 3.0 0.00 0.00 0.00 99 1008.2
20260509060621 48 82 2.0 3.0 0.00 0.00 0.00 99 1008.6
20260509060116 48 69 1.0 3.0 0.00 0.00 0.00 99 1008.9
20260509055612 48 69 2.0 3.0 0.00 0.00 0.00 99 1008.9
20260509055108 48 96 3.0 3.0 0.00 0.00 0.00 99 1009.0
20260509054605 48 72 1.0 2.0 0.00 0.00 0.00 99 1008.8
20260509054103 48 68 1.0 3.0 0.00 0.00 0.00 99 1008.8
20260509053601 48 61 1.0 3.0 0.00 0.00 0.00 99 1009.0
20260509053058 48 77 1.0 3.0 0.00 0.00 0.00 99 1009.0
20260509052556 48 63 0.0 2.0 0.00 0.00 0.00 99 1009.2
20260509052053 48 67 0.0 2.0 0.00 0.00 0.00 99 1009.4
20260509051551 48 61 2.0 2.0 0.00 0.00 0.00 99 1009.4
20260509051048 48 46 1.0 2.0 0.00 0.00 0.00 99 1009.3
20260509050544 48 63 1.0 3.0 0.00 0.00 0.00 99 1009.5
20260509050041 48 75 2.0 3.0 0.00 0.00 0.00 99 1009.1
20260509045539 48 36 0.0 2.0 0.00 0.00 0.00 99 1009.3
20260509045035 48 61 1.0 1.0 0.00 0.00 0.00 99 1009.2
20260509044533 48 69 2.0 3.0 0.00 0.00 0.00 99 1009.4
20260509044030 48 71 2.0 2.0 0.00 0.00 0.00 99 1009.5
20260509043526 48 74 2.0 2.0 0.00 0.00 0.00 99 1009.4
20260509043022 48 72 1.0 3.0 0.00 0.00 0.00 99 1009.5
20260509042518 48 84 1.0 2.0 0.00 0.00 0.00 99 1009.6
20260509042009 48 76 2.0 2.0 0.00 0.00 0.00 99 1009.6
20260509041506 48 86 1.0 2.0 0.02 0.00 0.00 99 1009.8
20260509041004 48 80 1.0 2.0 0.00 0.00 0.00 99 1009.8
20260509040502 48 77 1.0 2.0 0.00 0.00 0.00 99 1009.8
20260509035957 48 85 1.0 2.0 0.00 0.06 0.06 99 1009.9
20260509035455 48 81 1.0 2.0 0.00 0.06 0.06 99 1010.2
20260509034951 48 79 1.0 2.0 0.00 0.06 0.06 99 1010.0
20260509034450 48 89 0.0 2.0 0.00 0.06 0.06 99 1010.2
20260509033946 49 100 2.0 3.0 0.00 0.06 0.06 99 1010.3
20260509033443 49 110 0.0 2.0 0.02 0.06 0.06 99 1010.3
20260509032940 49 88 1.0 3.0 0.02 0.06 0.06 99 1010.3
20260509032437 49 92 2.0 2.0 0.00 0.06 0.06 99 1010.4
20260509031935 49 86 2.0 2.0 0.00 0.06 0.06 99 1010.4
20260509031432 49 84 1.0 2.0 0.00 0.06 0.06 99 1010.5
20260509030929 49 87 1.0 2.0 0.02 0.06 0.06 99 1010.4
20260509030427 49 80 2.0 3.0 0.02 0.06 0.06 99 1010.6
20260509025924 49 41 1.0 2.0 0.00 0.06 0.06 98 1010.8
20260509025420 49 53 0.0 2.0 0.02 0.06 0.06 98 1010.8
20260509024915 49 67 2.0 2.0 0.02 0.06 0.06 98 1010.8
20260509024412 49 72 1.0 2.0 0.02 0.05 0.05 98 1011.0
20260509023909 49 76 1.0 1.0 0.05 0.05 0.05 98 1010.7
20260509023406 49 62 1.0 2.0 0.02 0.05 0.05 98 1011.3
20260509022902 49 56 0.0 2.0 0.02 0.04 0.04 98 1011.3
20260509022359 49 64 2.0 2.0 0.05 0.04 0.04 98 1011.3
20260509021857 49 84 2.0 2.0 0.05 0.04 0.04 98 1011.3
20260509021353 49 109 0.0 1.0 0.02 0.03 0.03 98 1011.1
20260509020851 49 104 0.0 0.0 0.02 0.03 0.03 98 1010.8
20260509020349 49 49 2.0 3.0 0.02 0.03 0.03 97 1011.0
20260509015846 49 69 3.0 3.0 0.00 0.02 0.02 97 1011.0
20260509015344 50 326 1.0 3.0 0.02 0.02 0.02 97 1011.0
20260509014841 50 60 0.0 2.0 0.02 0.02 0.02 97 1010.9
20260509014337 50 76 3.0 3.0 0.00 0.02 0.02 97 1010.8
20260509013834 50 353 1.0 3.0 0.00 0.02 0.02 96 1010.7
20260509013331 50 123 1.0 2.0 0.00 0.02 0.02 96 1010.6
20260509012826 50 113 0.0 2.0 0.00 0.02 0.02 95 1010.1
20260509012323 50 54 0.0 2.0 0.00 0.02 0.02 95 1010.0
20260509011821 50 54 3.0 4.0 0.00 0.02 0.02 95 1010.0
20260509011318 50 59 2.0 3.0 0.00 0.02 0.02 94 1009.8
20260509010816 50 44 3.0 4.0 0.02 0.02 0.02 94 1009.5
20260509010312 50 48 4.0 4.0 0.02 0.02 0.02 94 1009.7
20260509005809 50 17 2.0 3.0 0.00 0.02 0.02 94 1009.7
20260509005308 50 56 2.0 4.0 0.00 0.02 0.02 94 1009.7
20260509004802 50 69 3.0 3.0 0.00 0.02 0.02 94 1009.6
20260509004259 50 55 2.0 3.0 0.00 0.02 0.02 94 1009.4
20260509003757 51 50 2.0 3.0 0.00 0.02 0.02 94 1009.5
20260509003254 51 100 3.0 3.0 0.00 0.02 0.02 94 1009.6
20260509002751 51 75 0.0 2.0 0.00 0.02 0.02 94 1009.6
20260509002249 51 88 1.0 2.0 0.00 0.02 0.02 94 1009.5
20260509001747 51 79 2.0 3.0 0.00 0.02 0.02 93 1009.5
20260509001242 51 104 0.0 1.0 0.00 0.02 0.02 93 1009.6
20260509000740 51 87 2.0 2.0 0.00 0.02 0.02 93 1009.6
20260509000237 51 89 1.0 3.0 0.00 0.02 0.02 93 1009.7
20260508235734 51 75 1.0 2.0 0.00 0.02 0.02 93 1009.4
20260508235231 51 92 2.0 3.0 0.00 0.02 0.02 93 1009.3
20260508234728 51 89 0.0 3.0 0.00 0.02 0.02 93 1009.2
20260508234223 51 76 0.0 2.0 0.00 0.02 0.02 92 1009.3
20260508233718 51 63 0.0 2.0 0.00 0.02 0.02 92 1009.2
20260508233216 51 80 2.0 3.0 0.00 0.02 0.02 93 1009.2
20260508232713 52 79 2.0 3.0 0.00 0.02 0.02 93 1009.3
20260508232209 52 78 2.0 3.0 0.00 0.02 0.02 93 1009.2
20260508231707 51 97 2.0 3.0 0.00 0.02 0.02 93 1009.3
20260508231204 51 84 2.0 2.0 0.00 0.02 0.02 93 1009.3
20260508230701 52 89 1.0 2.0 0.00 0.02 0.02 92 1009.7
20260508230157 52 89 2.0 3.0 0.00 0.02 0.02 92 1009.8
20260508225655 52 68 2.0 3.0 0.00 0.02 0.02 92 1009.7
20260508225150 52 68 1.0 2.0 0.00 0.02 0.02 92 1009.8
20260508224649 52 60 1.0 2.0 0.00 0.02 0.02 92 1009.8